This demonstration page uses our WeatherBlox Daily Observations layout. Learn more.

Left ArrowRight Arrow

Hourly Observations for October 11, 2020

Temp ( °F °C ) Dew Point ( °F °C ) Humidity (%) Winds ( mph kmh ) Pressure ( in mb ) Visibility ( mi km ) Precip ( " mm )
12:15 am 00:15 Clear 62 16.8 57 14 84 84 SSE 7 11 29.75 1008 10 16 N/A
12:35 am 00:35 Clear 62 16.9 58 14.2 84 84 SSE 8 13 29.75 1008 10 16 N/A
12:55 am 00:55 Clear 62 16.5 57 14.1 86 86 SSE 7 11 29.74 1007 10 16 N/A
1:15 am 01:15 Clear 62 16.7 58 14.5 87 87 S 9 15 29.74 1007 10 16 N/A
1:35 am 01:35 Clear 62 16.5 58 14.5 88 88 S 10 17 29.73 1007 10 16 N/A
1:55 am 01:55 Clear 61 16.3 58 14.5 89 89 S 8 13 29.72 1006 10 16 N/A
2:15 am 02:15 Clear 61 16.3 58 14.6 90 90 SSE 8 13 29.71 1006 10 16 N/A
2:35 am 02:35 Clear 61 16.1 58 14.6 91 91 SSE 9 15 29.71 1006 10 16 N/A
2:55 am 02:55 Clear 62 16.8 59 15.2 90 90 S 10 17 29.72 1007 10 16 N/A
3:15 am 03:15 Clear 62 16.6 59 15.1 91 91 SSE 9 15 29.72 1006 10 16 N/A
3:35 am 03:35 Clear 62 16.5 59 15.2 92 92 SSE 12 19 29.71 1006 10 16 N/A
3:55 am 03:55 Clear 62 16.5 59 15.2 92 92 SSE 10 17 29.70 1006 10 16 N/A
4:15 am 04:15 Clear 63 17 60 15.7 92 92 SSE 14 22 29.68 1005 10 16 N/A
4:35 am 04:35 Clear 63 17 60 15.7 92 92 SSE 16 26 29.67 1005 10 16 N/A
4:55 am 04:55 Clear 62 16.8 60 15.7 93 93 S 13 20 29.66 1005 10 16 N/A
5:15 am 05:15 Clear 62 16.7 60 15.7 94 94 SSE 15 24 29.67 1005 10 16 N/A
5:35 am 05:35 Partly Cloudy 62 16.7 60 15.7 94 94 SSE 15 24 29.66 1004 10 16 N/A
5:55 am 05:55 Mostly Cloudy 62 16.7 60 15.8 94 94 S 15 24 29.65 1004 10 16 N/A
6:15 am 06:15 Mostly Cloudy 62 16.6 60 15.7 94 94 SSE 16 26 29.64 1004 10 16 N/A
6:35 am 06:35 Partly Cloudy 62 16.6 60 15.7 94 94 SSE 16 26 29.64 1004 10 16 N/A
6:55 am 06:55 Partly Cloudy 62 16.8 60 15.8 94 94 SSE 15 24 29.62 1003 10 16 N/A
7:15 am 07:15 Partly Cloudy 62 16.8 60 15.8 94 94 SSE 17 28 29.61 1003 10 16 N/A
7:35 am 07:35 Partly Cloudy 63 17 61 16 94 94 SSE 17 28 29.61 1003 10 16 N/A
7:55 am 07:55 Mostly Cloudy 63 17.1 61 16.1 94 94 SSE 16 26 29.61 1003 10 16 N/A
8:15 am 08:15 Cloudy 64 17.6 62 16.5 93 93 SSE 17 28 29.60 1002 10 16 N/A
8:35 am 08:35 Cloudy 64 17.8 62 16.5 92 92 S 22 35 29.59 1002 10 16 N/A
8:55 am 08:55 Cloudy 64 17.8 62 16.5 92 92 S 21 33 29.59 1002 10 16 N/A
9:15 am 09:15 Cloudy 64 18 62 16.5 91 91 S 17 28 29.59 1002 10 16 N/A
9:35 am 09:35 Cloudy 65 18.2 62 16.6 90 90 S 17 28 29.58 1002 10 16 N/A
9:55 am 09:55 Cloudy 65 18.3 62 16.5 89 89 S 15 24 29.58 1002 10 16 N/A
10:15 am 10:15 Cloudy 65 18.5 62 16.5 88 88 S 18 30 29.58 1002 10 16 N/A
10:35 am 10:35 Cloudy 67 19.2 62 16.5 84 84 S 14 22 29.55 1001 10 16 N/A
10:55 am 10:55 Cloudy 68 20 61 16.2 79 79 S 21 33 29.53 1000 10 16 N/A
11:15 am 11:15 Cloudy 69 20.8 61 16 74 74 S 18 30 29.51 999 10 16 N/A
11:35 am 11:35 Cloudy 71 21.8 61 15.9 69 69 S 21 33 29.50 999 10 16 N/A
11:55 am 11:55 Mostly Cloudy 73 23 60 15.5 63 63 S 23 37 29.48 998 10 16 N/A
12:15 pm 12:15 Partly Cloudy 75 24.1 59 14.9 57 57 SSW 21 33 29.47 998 10 16 N/A
12:55 pm 12:55 Sunny 79 25.9 55 12.7 44 44 SSW 20 31 29.44 997 10 16 N/A
1:15 pm 13:15 Sunny 81 27 54 12.1 40 40 SSW 20 31 29.41 996 10 16 N/A
1:35 pm 13:35 Sunny 82 27.8 53 11.6 37 37 SSW 18 30 29.41 996 10 16 N/A
1:55 pm 13:55 Sunny 84 29 50 10.1 31 31 SW 16 26 29.39 995 10 16 N/A
2:15 pm 14:15 Sunny 85 29.4 51 10.5 31 31 S 20 31 29.37 995 10 16 N/A
2:35 pm 14:35 Sunny 85 29.5 48 8.7 27 27 SW 13 20 29.36 994 10 16 N/A
2:55 pm 14:55 Sunny 88 30.9 47 8.6 25 25 SW 15 24 29.35 994 10 16 N/A
3:15 pm 15:15 Sunny 87 30.6 46 7.7 24 24 SW 13 20 29.36 994 10 16 N/A
3:35 pm 15:35 Sunny 89 31.5 43 6.1 20 20 SSW 12 19 29.34 994 10 16 N/A
3:55 pm 15:55 Sunny 88 31.3 38 3.2 17 17 SW 5 7 29.36 994 10 16 N/A
4:15 pm 16:15 Sunny 89 31.6 36 2.4 15 15 W 8 13 29.33 993 10 16 N/A
4:35 pm 16:35 Sunny 88 31.1 35 1.8 15 15 WSW 6 9 29.36 994 10 16 N/A
4:55 pm 16:55 Sunny 89 31.4 36 2.4 16 16 W 9 15 29.35 994 10 16 N/A
5:15 pm 17:15 Sunny 88 31.1 36 2 16 16 W 3 6 29.36 994 10 16 N/A
5:35 pm 17:35 Sunny 84 28.9 40 4.2 21 21 NNW 10 17 29.37 995 10 16 N/A
5:55 pm 17:55 Sunny 82 28 40 4.5 22 22 NNW 9 15 29.39 995 10 16 N/A
6:15 pm 18:15 Sunny 80 26.7 42 5.8 26 26 NNW 10 17 29.41 996 10 16 N/A
6:35 pm 18:35 Sunny 80 26.5 45 7.4 30 30 NNW 14 22 29.41 996 10 16 N/A
6:55 pm 18:55 Mostly Cloudy 79 26.1 42 5.5 27 27 NW 15 24 29.43 997 10 16 N/A
7:15 pm 19:15 Cloudy with Nearby Thunderstorms 78 25.6 44 6.4 29 29 NNW 15 24 29.46 998 10 16 N/A
7:35 pm 19:35 Cloudy with Haze 74 23.5 38 3.1 26 26 NW 35 56 29.53 1000 5 8 N/A
7:55 pm 19:55 Cloudy with Haze 67 19.3 37 2.7 33 33 NW 30 48 29.63 1004 3 5 N/A
8:15 pm 20:15 Mostly Cloudy with Light Rain 58 14.6 43 6.1 57 57 NNW 21 33 29.69 1006 5 8 N/A
8:35 pm 20:35 Partly Cloudy 58 14.5 43 5.9 57 57 NNW 21 33 29.71 1006 10 16 N/A
8:55 pm 20:55 Partly Cloudy with Drizzle 56 13.5 43 6.1 61 61 NNW 22 35 29.76 1008 10 16 N/A
9:15 pm 21:15 Clear 56 13.2 43 6 62 62 NNW 20 31 29.75 1008 10 16 N/A
9:35 pm 21:35 Clear 55 12.9 42 5.7 62 62 NNW 22 35 29.78 1008 10 16 N/A
9:55 pm 21:55 Clear 55 12.7 42 5.5 62 62 NNW 24 39 29.77 1008 10 16 N/A
10:15 pm 22:15 Partly Cloudy 54 12.3 42 5.3 63 63 NNW 22 35 29.80 1009 10 16 N/A
10:35 pm 22:35 Mostly Cloudy with Light Rain 51 10.7 44 6.5 75 75 NNW 20 31 29.84 1010 10 16 N/A
10:55 pm 22:55 Cloudy 51 10.5 44 6.4 76 76 NNW 14 22 29.85 1011 10 16 N/A
11:15 pm 23:15 Cloudy 51 10.5 43 6.1 74 74 NNW 15 24 29.87 1011 10 16 N/A
11:35 pm 23:35 Cloudy 52 10.9 42 5.6 70 70 N 14 22 29.86 1011 10 16 N/A
11:55 pm 23:55 Cloudy 52 11.3 41 5.1 66 66 NW 17 28 29.89 1012 10 16 N/A

Powered by AerisWeather